Location: Observatory
(52.1446°N, 0.4624°W)
Time: 14:31:56
(UTC+00:00)

ISS - Pass Details

Date: 24 March 2019
Orbit: 408 x 411 km, 51.6° (Epoch: 25 March)

Event Time Altitude Azimuth Distance (km) Brightness Sun altitude
Rises 20:04:22 0° 239° (WSW) 2,331 0.5 -16.1°
Reaches altitude 10° 20:06:30 10° 233° (SW) 1,471 -0.6 -16.4°
Maximum altitude 20:09:40 46° 159° (SSE) 559 -3.5 -16.8°
Enters shadow 20:09:53 45° 145° (SE) 566 -3.5 -16.8°
